ARABSAT-6A

Last updated on Wed Mar 04 2026 00:02:52 GMT+0000 (Coordinated Universal Time)

1 44186U 19021A 26062.36572473 .00000000 00000+0 00000+0 0 9997 2 44186 0.0169 13.1563 0003066 320.7917 349.3814 1.00279906 25096
UTC large
Height (km)
Speed (km/s)
/
Latitude / Longitude
Inclination (degrees)
Orbital Period (minutes)
Azimuth
Elevation
Range (km)
Doppler Factor

Next 0 passes for location: London (51.5072 / 0.1276)

Sorry there are no passes over London.